K7JKM Weather Reports


Display with metric or nautical units.
time (UTC)temp
F
wind
direction
speed
MPH
gust
MPH
rain 1hr
in
rain 24hr
in
rain mn
in
humidity
%
barometer
mb
20260906130028 56 233 0.0 0.0 0.00 0.01 0.00 72 1015.9
20260906124528 56 233 0.0 0.0 0.00 0.01 0.00 72 1015.8
20260906123020 56 258 0.0 0.0 0.00 0.01 0.00 71 1015.9
20260906121515 56 258 0.0 0.0 0.00 0.01 0.00 71 1016.0
20260906120011 56 258 0.0 0.0 0.00 0.01 0.00 71 1016.0
20260906114508 56 258 0.0 0.0 0.00 0.01 0.00 71 1015.9
20260906113007 56 258 0.0 0.0 0.00 0.01 0.00 71 1016.0
20260906111505 56 258 0.0 0.0 0.00 0.01 0.00 71 1015.9
20260906110027 56 258 0.0 0.0 0.00 0.01 0.00 71 1016.0
20260906104534 56 258 0.0 0.0 0.00 0.01 0.00 71 1015.9
20260906103023 57 258 0.0 0.0 0.00 0.01 0.00 71 1015.7
20260906101518 57 258 0.0 0.0 0.00 0.01 0.00 71 1015.6
20260906100015 57 258 0.0 0.0 0.00 0.01 0.00 71 1015.6
20260906094522 57 258 0.0 1.0 0.00 0.01 0.00 71 1015.6
20260906093011 56 256 0.0 0.0 0.00 0.01 0.00 72 1015.5
20260906091534 56 256 0.0 0.0 0.00 0.01 0.00 72 1015.5
20260906090029 56 255 0.0 0.0 0.00 0.01 0.00 71 1015.5
20260906084542 56 256 0.0 0.0 0.00 0.01 0.00 70 1015.5
20260906083034 57 256 0.0 0.0 0.00 0.01 0.00 69 1015.5
20260906081519 57 256 0.0 0.0 0.00 0.01 0.00 69 1015.5
20260906080024 57 256 0.0 0.0 0.00 0.01 0.00 68 1015.5
20260906074512 58 256 0.0 0.0 0.00 0.01 0.00 68 1015.6
20260906073040 58 256 0.0 0.0 0.00 0.01 0.00 68 1015.7
20260906071530 58 255 0.0 0.0 0.00 0.01 0.00 68 1015.7
20260906070028 58 256 0.0 1.0 0.00 0.01 0.00 68 1015.6
20260906064532 58 262 0.0 0.0 0.00 0.01 0.01 68 1015.6
20260906063026 58 260 0.0 0.0 0.00 0.01 0.01 68 1015.6
20260906061523 57 260 0.0 0.0 0.00 0.01 0.01 68 1015.7
20260906060020 58 260 0.0 0.0 0.00 0.01 0.01 68 1015.8
20260906054534 58 260 0.0 0.0 0.00 0.01 0.01 67 1016.0
20260906053031 58 261 0.0 0.0 0.00 0.01 0.01 67 1015.8
20260906051529 58 288 0.0 0.0 0.00 0.01 0.01 67 1015.8
20260906050031 59 288 0.0 0.0 0.00 0.01 0.01 67 1015.9
20260906044530 59 199 0.0 0.0 0.00 0.01 0.01 67 1015.9
20260906043003 59 295 0.0 1.0 0.00 0.01 0.01 67 1016.1
20260906041503 59 307 0.0 1.0 0.00 0.01 0.01 67 1016.1
20260906040003 60 287 0.0 1.0 0.00 0.01 0.01 67 1016.1
20260906034506 60 307 0.0 1.0 0.00 0.01 0.01 66 1016.0
20260906033011 61 298 0.0 4.0 0.00 0.01 0.01 66 1015.8
20260906031503 61 298 0.0 3.0 0.00 0.01 0.01 65 1015.8
20260906030002 62 290 0.0 3.0 0.00 0.01 0.01 65 1015.9
20260906024504 63 299 0.0 3.0 0.00 0.01 0.01 64 1015.9
20260906023003 64 275 0.0 3.0 0.00 0.01 0.01 62 1015.8
20260906021504 65 14 0.0 1.0 0.00 0.01 0.01 59 1015.8
20260906020004 66 285 0.0 2.0 0.00 0.01 0.01 57 1015.8
20260906014510 66 298 0.0 3.0 0.00 0.01 0.01 57 1015.8
20260906013007 66 284 0.0 3.0 0.00 0.01 0.01 55 1015.9
20260906011504 68 307 0.0 3.0 0.00 0.01 0.01 53 1015.9
20260906010003 69 288 0.0 3.0 0.00 0.01 0.01 49 1015.9
20260906004504 69 34 0.0 3.0 0.00 0.01 0.01 48 1015.9
20260906003004 70 293 0.0 4.0 0.00 0.01 0.01 48 1015.8
20260906001504 71 302 0.0 2.0 0.00 0.01 0.01 46 1015.8
20260906000008 71 276 0.0 4.0 0.00 0.01 0.01 47 1015.8
20260905234508 72 300 0.0 2.0 0.00 0.01 0.01 42 1015.7
20260905233007 72 143 0.0 4.0 0.00 0.01 0.01 44 1015.8
20260905231506 71 60 0.0 3.0 0.00 0.01 0.01 45 1015.8
20260905230007 71 295 0.0 3.0 0.00 0.01 0.01 46 1016.0
20260905224520 69 11 0.0 5.0 0.00 0.01 0.01 49 1016.1
20260905223009 70 327 0.0 1.0 0.00 0.01 0.01 49 1016.2
20260905221511 70 298 0.0 3.0 0.00 0.01 0.01 48 1016.3
20260905220016 70 306 0.0 3.0 0.00 0.02 0.01 47 1016.5
20260905214514 70 165 0.0 4.0 0.00 0.02 0.01 47 1016.6
20260905213032 70 188 0.0 2.0 0.00 0.04 0.01 53 1016.7
20260905211513 69 324 0.0 2.0 0.00 0.07 0.01 55 1016.8
20260905210015 69 326 0.0 3.0 0.00 0.07 0.01 53 1017.0
20260905204518 69 14 0.0 0.0 0.00 0.07 0.01 54 1017.1
20260905203018 69 319 0.0 0.0 0.00 0.07 0.01 54 1017.1
20260905201516 67 48 0.0 0.0 0.00 0.07 0.01 58 1017.1
20260905200021 66 284 0.0 3.0 0.00 0.07 0.01 60 1017.2
20260905194517 66 278 0.0 1.0 0.00 0.07 0.01 59 1017.3
20260905193016 66 167 0.0 1.0 0.00 0.07 0.01 60 1017.4
20260905191518 65 152 0.0 2.0 0.00 0.07 0.01 63 1017.6
20260905190019 64 115 0.0 0.0 0.00 0.08 0.01 64 1017.6
20260905184521 63 115 0.0 0.0 0.00 0.08 0.01 66 1017.6
20260905183024 62 294 0.0 1.0 0.00 0.08 0.01 67 1017.7
20260905181505 62 131 0.0 0.0 0.00 0.08 0.01 66 1017.7
20260905180005 62 132 0.0 0.0 0.00 0.08 0.01 67 1017.6
20260905174508 61 131 0.0 1.0 0.00 0.08 0.01 68 1017.7
20260905173023 60 119 0.0 0.0 0.00 0.08 0.01 69 1017.7
20260905171524 59 114 0.0 1.0 0.00 0.08 0.01 71 1017.8
20260905170014 59 293 0.0 1.0 0.00 0.08 0.01 71 1017.8
20260905164510 59 148 0.0 0.0 0.00 0.08 0.01 72 1017.7
20260905163010 58 148 0.0 0.0 0.00 0.08 0.01 72 1017.7
20260905161506 58 148 0.0 0.0 0.00 0.08 0.01 73 1017.8
20260905160012 57 147 0.0 0.0 0.00 0.08 0.01 74 1017.8
20260905154526 57 158 0.0 0.0 0.00 0.08 0.01 78 1017.8
20260905153031 56 174 0.0 0.0 0.00 0.08 0.01 79 1017.7
20260905151520 56 174 0.0 0.0 0.00 0.08 0.01 80 1017.6
20260905150018 56 174 0.0 0.0 0.00 0.09 0.01 80 1017.7
20260905144510 56 174 0.0 0.0 0.00 0.09 0.01 80 1017.6
20260905143012 55 174 0.0 0.0 0.01 0.09 0.01 80 1017.6
20260905141508 55 174 0.0 0.0 0.01 0.09 0.01 80 1017.5
20260905140030 55 174 0.0 0.0 0.01 0.09 0.01 80 1017.5
20260905134528 54 174 0.0 0.0 0.01 0.09 0.01 80 1017.5
20260905133024 55 174 0.0 0.0 0.00 0.08 0.00 79 1017.4
20260905131540 55 174 0.0 0.0 0.00 0.08 0.00 79 1017.4